STARLINK-37018, 68103

Orbit data source: Space-Track

STARLINK-37018, 68103 is a payload satellite owned by SpaceX/Seattle (US) in SSO that was launched on Sun, 08 Mar 2026 UTC via an FALCON 9 launch vehicle from the Air Force Western Test Range (AFWTR). Payload-class satellites include a variety of spacecraft equipped with specific instruments for various scientific and technological missions. These include communications satellites like Starlink; space stations such as the ISS; scientific satellites like the Hubble; Earth observation satellites from companies like Planet Labs, Umbra, and HawkEye 360; GPS; miniature CubeSats for education and research; and military/defense satellites.

Loading next visibility...
Identifier
68103, 2026-044C
Orbit
SSO
Country
Flag of USUS
Related business
Manufacturer
SpaceX/Seattle
Mission
Operational spacecraft
Bus & Motor
STARLINK V2MO, Unknown motor
Mass
575 kg wet, ~530 kg dry
Launch date (UTC)
2026-03-08 (1 month ago)
Launch vehicle
FALCON 9
Launch site
Air Force Western Test Range (AFWTR)
Object type
Payload
Rocket body
Debris
Shape & HBR
Unknown shape, 17.7 m
Radar Cross Section
RCS unknown

Expand to show TLE details & history
Last TLE update: 17 hours ago

TLE from 17 hours ago
0 STARLINK-37018
1 68103U 26044C   26104.86602723  .00022875  00000-0  70853-3 0  9991
2 68103  97.2847  66.0064 0002304  93.0323 267.1184 15.33452950  7124
Epoch: 2026-04-14T20:47Z
TLE epoch observation values (Epoch: 2026-04-14T20:47:04.752Z)
Latitude
0.00002°
Longitude
-88.79954°
Altitude
468.711 km
Speed
7.632 km/s
True Right ascension
04h 24m 01s
True Declination
0° 00' 00"
Sunlit
Object was in daylight at epoch
Visualization orbit readout
Latitude
Unknown
Longitude
Unknown
Altitude
Unknown
Speed
Unknown
Apparent Right ascension
Unknown
Apparent Declination
Unknown
Sunlit
N/A
Visualization observer readout
Local Sidereal Time
20:32:45
Azimuth
Unknown
Elevation
Unknown
Doppler factor
Unknown
Orbital elements
Apogee altitude
464.038 km
Perigee altitude
460.886 km
Semi-major axis
6,840.599 km
Eccentricity
0.00023
Inclination
97.2847°
RAAN
66.0064°
Arg. of periapsis
93.0323°
True anomaly
267.09203°
Mean anomaly
267.1184°
Eccentric anomaly
267.10522°
Mean motion
3.83621 °/min
Orbital period
93.84 mins
BSTAR
0.00070853
Loading maneuver chart data...
Computing Atmospheric mass density...
Loading historical data...
Loading historical data...
Loading historical data...
Loading historical data...
Loading historical data...
Loading historical data...
Loading historical data...

Documentation

Showing up to 5 results
|